Weather Service Report


463 
ASUS43 KLMK 271502
RWRKY 
KENTUCKY REGIONAL WEATHER ROUNDUP
NATIONAL WEATHER SERVICE LOUISVILLE KY
1100 AM EDT MON JUN 27 2016

NOTE "FAIR" INDICATES FEW OR NO CLOUDS BELOW 12,000 FEET
WITH NO SIGNIFICANT WEATHER AND/OR OBSTRUCTIONS TO VISIBILITY.

KYZ001>023-026-027-061>063-070>075-271600-
WESTERN AND SOUTH CENTRAL KENTUCKY
  
CITY           SKY/WX    TMP DP  RH WIND       PRES   REMARKS
PADUCAH        CLOUDY    84  71  65 NE14      30.07F                  
HENDERSON      CLOUDY    73  70  88 N6        30.10F                  
OWENSBORO      LGT RAIN  73  73 100 E5        30.11S FOG              
HOPKINSVILLE   CLOUDY    82  75  78 N14G20    30.06F                  
BOWLING GREEN  CLOUDY    82  74  76 N7        30.08F                  
GLASGOW        NOT AVBL                                               
$$

KYZ024-025-028>034-038-045-046-053-271600-
NORTH CENTRAL KENTUCKY
  
CITY           SKY/WX    TMP DP  RH WIND       PRES   REMARKS
LOUISVILLE/SDF CLOUDY    80  71  74 W10       30.10R                  
LOUISVILLE/LOU CLOUDY    81  69  67 W7        30.10R                  
FORT KNOX      NOT AVBL                                               
$$

KYZ035>037-039>044-047>052-055>060-089>105-271600-
NORTHEAST KENTUCKY
  
CITY           SKY/WX    TMP DP  RH WIND       PRES   REMARKS
LEXINGTON      MOSUNNY   83  71  67 N3        30.09F                  
COVINGTON      CLOUDY    81  70  69 N9        30.09R                  
FRANKFORT      CLOUDY    85  69  58 N5        30.08S                  
$$

KYZ054-064>069-076>088-106>120-271600-
SOUTHEAST KENTUCKY
  
CITY           SKY/WX    TMP DP  RH WIND       PRES   REMARKS
JACKSON        PTSUNNY   81  73  76 CALM      30.10F                  
LONDON         MOSUNNY   82  70  66 NW6       30.11S                  
SOMERSET       MOSUNNY   79  68  69 NW6       30.11S                  
MIDDLESBORO    PTSUNNY   80  72  77 CALM      30.12S                  
MONTICELLO     CLOUDY   N/A N/A N/A NW9       30.13  THUNDER          
$$

  

Return to Home page


Western Regional Climate Center, wrcc@dri.edu